Location: Bakov nad Jizerou
(50.4784°N, 14.9394°E)
Time: 16:20:05
(UTC+00:00)

Cosmos 2322 - Pass Details

Date: 27 October 2021
Orbit: 841 x 854 km, 71.0° (Epoch: 04 December)

Event Time Altitude Azimuth Distance (km) Brightness Sun altitude
Rises 18:04:43 0° 200° (SSW) 3,410 7.0 -22.8°
Reaches altitude 10° 18:07:10 10° 199° (SSW) 2,478 6.2 -23.2°
Maximum altitude 18:12:50 74° 115° (ESE) 893 3.6 -24.1°
Enters shadow 18:14:41 44° 43° (NE) 1,168 4.1 -24.4°
